TimeAKDT,TemperatureF,Dew PointF,Humidity,Sea Level PressureIn,VisibilityMPH,Wind Direction,Wind SpeedMPH,Gust SpeedMPH,PrecipitationIn,Events,Conditions,WindDirDegrees,DateUTC
12:16 AM,17.6,12.2,79,29.91,4.0,North,24.2,-,N/A,,Mostly Cloudy,350,2013-05-12 08:16:00
12:36 AM,17.6,12.2,79,29.91,3.0,North,21.9,-,N/A,,Overcast,350,2013-05-12 08:36:00
12:56 AM,17.6,12.2,79,29.92,7.0,NNW,25.3,-,N/A,,Overcast,340,2013-05-12 08:56:00
1:36 AM,17.6,12.2,79,29.93,2.5,NNW,23.0,-,N/A,,Overcast,340,2013-05-12 09:36:00
1:56 AM,17.6,10.4,73,29.93,8.0,North,18.4,-,N/A,,Overcast,350,2013-05-12 09:56:00
2:16 AM,17.6,12.2,79,29.94,10.0,NNW,16.1,-,N/A,,Overcast,340,2013-05-12 10:16:00
2:36 AM,17.6,10.4,73,29.93,5.0,NNW,23.0,-,N/A,,Overcast,340,2013-05-12 10:36:00
2:56 AM,17.6,10.4,73,29.94,10.0,NNW,19.6,24.2,N/A,,Overcast,340,2013-05-12 10:56:00
3:16 AM,17.6,12.2,79,29.94,3.0,NNW,26.5,29.9,N/A,,Overcast,330,2013-05-12 11:16:00
3:36 AM,15.8,10.4,79,29.95,7.0,NNW,23.0,-,N/A,,Overcast,330,2013-05-12 11:36:00
3:56 AM,15.8,8.6,73,29.95,10.0,NNW,21.9,-,N/A,,Overcast,340,2013-05-12 11:56:00
4:16 AM,15.8,8.6,73,29.95,10.0,NNW,19.6,26.5,N/A,,Overcast,340,2013-05-12 12:16:00
4:36 AM,15.8,8.6,73,29.94,10.0,NNW,18.4,24.2,N/A,,Overcast,340,2013-05-12 12:36:00
4:56 AM,15.8,6.8,68,29.94,10.0,NNW,21.9,-,N/A,,Mostly Cloudy,330,2013-05-12 12:56:00
5:16 AM,14.0,6.8,73,29.95,10.0,NW,18.4,-,N/A,,Scattered Clouds,320,2013-05-12 13:16:00
5:36 AM,14.0,8.6,79,29.95,10.0,NW,13.8,-,N/A,,Mostly Cloudy,320,2013-05-12 13:36:00
5:56 AM,15.8,10.4,79,29.95,10.0,NW,20.7,-,N/A,,Overcast,320,2013-05-12 13:56:00
6:16 AM,15.8,10.4,79,29.94,10.0,NW,17.3,-,N/A,,Overcast,320,2013-05-12 14:16:00
6:36 AM,15.8,10.4,79,29.94,10.0,NW,17.3,-,N/A,,Overcast,320,2013-05-12 14:36:00
6:56 AM,15.8,10.4,79,29.94,10.0,NW,16.1,23.0,N/A,,Overcast,320,2013-05-12 14:56:00
7:16 AM,15.8,10.4,79,29.94,10.0,NW,13.8,-,N/A,,Overcast,320,2013-05-12 15:16:00
7:36 AM,15.8,10.4,79,29.94,10.0,NW,10.4,-,N/A,,Mostly Cloudy,320,2013-05-12 15:36:00
7:56 AM,15.8,10.4,79,29.94,10.0,NW,10.4,-,N/A,,Overcast,320,2013-05-12 15:56:00
8:16 AM,15.8,10.4,79,29.94,10.0,NW,12.7,18.4,N/A,,Overcast,320,2013-05-12 16:16:00
8:36 AM,15.8,8.6,73,29.93,10.0,NNW,11.5,-,N/A,,Overcast,340,2013-05-12 16:36:00
8:56 AM,15.8,8.6,73,29.93,10.0,NNW,11.5,-,N/A,,Overcast,330,2013-05-12 16:56:00
9:16 AM,15.8,10.4,79,29.93,10.0,NNW,13.8,-,N/A,,Overcast,330,2013-05-12 17:16:00
9:36 AM,15.8,10.4,79,29.94,10.0,NNW,12.7,-,N/A,,Overcast,340,2013-05-12 17:36:00
9:56 AM,15.8,10.4,79,29.94,10.0,NNW,12.7,-,N/A,,Overcast,340,2013-05-12 17:56:00
10:16 AM,15.8,8.6,73,29.94,10.0,NNW,13.8,-,N/A,,Overcast,340,2013-05-12 18:16:00
10:36 AM,15.8,10.4,79,29.94,10.0,NNW,10.4,-,N/A,,Overcast,340,2013-05-12 18:36:00
10:56 AM,15.8,10.4,79,29.94,10.0,NW,16.1,-,N/A,,Overcast,320,2013-05-12 18:56:00
11:16 AM,15.8,10.4,79,29.94,10.0,NW,16.1,-,N/A,,Overcast,310,2013-05-12 19:16:00
11:36 AM,17.6,10.4,73,29.94,10.0,NW,18.4,-,N/A,,Overcast,310,2013-05-12 19:36:00
11:56 AM,17.6,12.2,79,29.93,10.0,NW,18.4,23.0,N/A,,Overcast,310,2013-05-12 19:56:00
12:16 PM,17.6,12.2,79,29.93,10.0,NW,17.3,-,N/A,,Overcast,310,2013-05-12 20:16:00
12:56 PM,19.4,14.0,80,29.93,4.0,NW,13.8,-,N/A,,Overcast,310,2013-05-12 20:56:00
1:16 PM,19.4,15.8,86,29.92,1.2,WNW,15.0,19.6,N/A,,Overcast,300,2013-05-12 21:16:00
2:16 PM,19.4,12.2,74,29.92,1.8,NNW,25.3,29.9,N/A,,Overcast,340,2013-05-12 22:16:00
2:36 PM,19.4,12.2,74,29.93,1.5,NNW,20.7,-,N/A,,Overcast,340,2013-05-12 22:36:00
2:56 PM,17.6,12.2,79,29.93,1.5,NNW,24.2,29.9,N/A,,Overcast,330,2013-05-12 22:56:00
3:16 PM,17.6,12.2,79,29.93,1.2,NNW,25.3,28.8,N/A,,Overcast,340,2013-05-12 23:16:00
3:36 PM,17.6,12.2,79,29.93,2.0,NNW,21.9,-,N/A,,Overcast,330,2013-05-12 23:36:00
3:56 PM,17.6,12.2,79,29.94,1.2,NNW,26.5,-,N/A,,Overcast,330,2013-05-12 23:56:00
4:16 PM,17.6,12.2,79,29.94,1.2,NNW,21.9,28.8,N/A,,Overcast,330,2013-05-13 00:16:00
4:36 PM,17.6,12.2,79,29.94,2.0,NNW,23.0,28.8,N/A,,Overcast,340,2013-05-13 00:36:00
4:56 PM,19.4,14.0,80,29.94,1.8,NNW,21.9,-,N/A,,Overcast,330,2013-05-13 00:56:00
5:16 PM,17.6,14.0,86,29.95,0.8,NNW,24.2,-,N/A,,Overcast,330,2013-05-13 01:16:00
5:36 PM,17.6,12.2,79,29.95,0.8,NNW,26.5,31.1,N/A,,Overcast,330,2013-05-13 01:36:00
5:56 PM,17.6,12.2,79,29.95,1.2,NNW,25.3,28.8,N/A,,Overcast,340,2013-05-13 01:56:00
6:16 PM,17.6,12.2,79,29.95,1.0,NNW,25.3,-,N/A,,Overcast,340,2013-05-13 02:16:00
6:36 PM,17.6,12.2,79,29.96,1.0,NNW,24.2,31.1,N/A,,Overcast,330,2013-05-13 02:36:00
6:56 PM,17.6,12.2,79,29.96,1.2,NNW,21.9,28.8,N/A,,Overcast,340,2013-05-13 02:56:00
7:16 PM,17.6,12.2,79,29.96,2.0,NNW,21.9,26.5,N/A,,Overcast,340,2013-05-13 03:16:00
7:36 PM,17.6,12.2,79,29.96,3.0,NNW,21.9,26.5,N/A,,Overcast,330,2013-05-13 03:36:00
7:56 PM,17.6,12.2,79,29.95,2.0,NNW,23.0,-,N/A,,Overcast,330,2013-05-13 03:56:00
8:16 PM,17.6,14.0,86,29.96,1.0,NNW,24.2,-,N/A,,Overcast,340,2013-05-13 04:16:00
8:36 PM,17.6,12.2,79,29.96,1.2,NNW,23.0,-,N/A,,Overcast,340,2013-05-13 04:36:00
8:56 PM,17.6,12.2,79,29.96,1.5,NNW,23.0,29.9,N/A,,Overcast,340,2013-05-13 04:56:00
9:16 PM,17.6,12.2,79,29.96,1.0,NNW,20.7,-,N/A,,Overcast,340,2013-05-13 05:16:00
9:36 PM,17.6,12.2,79,29.96,0.8,North,24.2,27.6,N/A,,Overcast,350,2013-05-13 05:36:00
9:56 PM,17.6,12.2,79,29.96,0.8,NNW,20.7,26.5,N/A,,Overcast,340,2013-05-13 05:56:00
10:16 PM,17.6,12.2,79,29.96,1.2,NNW,23.0,26.5,N/A,,Overcast,340,2013-05-13 06:16:00
10:36 PM,17.6,12.2,79,29.96,0.5,North,24.2,-,N/A,,Overcast,350,2013-05-13 06:36:00
10:56 PM,15.8,12.2,86,29.96,0.5,NNW,21.9,-,N/A,,Overcast,340,2013-05-13 06:56:00
11:16 PM,15.8,12.2,86,29.96,0.5,NNW,24.2,-,N/A,,Overcast,340,2013-05-13 07:16:00
11:36 PM,15.8,10.4,79,29.97,1.0,NNW,20.7,27.6,N/A,,Overcast,340,2013-05-13 07:36:00
11:56 PM,15.8,10.4,79,29.97,1.0,NNW,23.0,-,N/A,,Overcast,340,2013-05-13 07:56:00